M I D A S
Marine Information and Data Acquisition System
Tripno 1531 of the Zeeleeuw from 2008-08-04 08:20:09 to 2008-08-04 14:43:14
Back to CruiseResearch ActivitiesStationsMapUnderway DataData graphs

EquipmentUnitsComment
TimeDGPSUTC
LatitudeDGPSDM.mWGS84
LongitudeDGPSDM.mWGS84
HeadingGyrodeg 
SOGDGPSknotsSpeed over ground
COGDGPSdegCourse over ground
DepthEcho soundermeters200 kHz
Missing or incorrect values are displayed as -999
Navigation data collected by the RV Zeeleeuw from 2008-08-04 08:22:21 to 2008-08-04 14:46:13
                                                                                    Next 1000 lines
Time Latitude Longitude Heading SOG COG Depth
2008-08-04 08:22:31 51°13.624 2°56.045 113 0.7 302 7.4
2008-08-04 08:22:36 51°13.624 2°56.044 113 1 296 7.3
2008-08-04 08:22:41 51°13.625 2°56.041 113.1 1.2 298 7
2008-08-04 08:22:46 51°13.626 2°56.038 113.2 1.6 297 7
2008-08-04 08:22:51 51°13.627 2°56.035 113.2 1.9 294 5.5
2008-08-04 08:22:56 51°13.629 2°56.03 113.1 2.2 295 7.4
2008-08-04 08:23:01 51°13.631 2°56.025 113.3 2.6 294 -999
2008-08-04 08:23:06 51°13.632 2°56.019 113.9 2.9 297 -999
2008-08-04 08:23:11 51°13.634 2°56.013 114 3.2 297 -999
2008-08-04 08:23:16 51°13.636 2°56.006 114.1 3.4 296 -999
2008-08-04 08:23:21 51°13.638 2°55.999 114 3.6 296 -999
2008-08-04 08:23:26 51°13.64 2°55.992 113.9 3.8 295 -999
2008-08-04 08:23:31 51°13.643 2°55.984 113.7 3.9 296 -999
2008-08-04 08:23:36 51°13.645 2°55.976 113.4 4 295 -999
2008-08-04 08:23:41 51°13.648 2°55.968 113 4.2 295 -999
2008-08-04 08:23:46 51°13.65 2°55.959 112.7 4.3 294 -999
2008-08-04 08:23:51 51°13.652 2°55.951 112.4 4.3 294 -999
2008-08-04 08:23:56 51°13.655 2°55.942 112.2 4.3 294 -999
2008-08-04 08:24:01 51°13.657 2°55.933 112.1 4.3 293 -999
2008-08-04 08:24:06 51°13.659 2°55.925 112 4.2 292 -999
2008-08-04 08:24:11 51°13.662 2°55.916 112 4.2 293 -999
2008-08-04 08:24:16 51°13.664 2°55.908 111.7 4.2 292 -999
2008-08-04 08:24:21 51°13.666 2°55.899 111.3 4.2 293 -999
2008-08-04 08:24:26 51°13.668 2°55.891 110.7 4.1 292 -999
2008-08-04 08:24:31 51°13.67 2°55.883 109.8 3.9 292 -999
2008-08-04 08:24:36 51°13.672 2°55.875 108.9 3.8 292 -999
2008-08-04 08:24:41 51°13.674 2°55.867 108.2 3.7 292 -999
2008-08-04 08:24:46 51°13.676 2°55.86 107.3 3.6 291 -999
2008-08-04 08:24:51 51°13.678 2°55.852 105.9 3.5 291 -999
2008-08-04 08:24:56 51°13.68 2°55.845 104.6 3.3 290 -999
2008-08-04 08:25:01 51°13.681 2°55.839 103.7 3.2 290 -999
2008-08-04 08:25:06 51°13.682 2°55.832 102.2 3.1 289 -999
2008-08-04 08:25:11 51°13.684 2°55.826 100.7 3 288 -999
2008-08-04 08:25:16 51°13.685 2°55.82 98.9 2.9 286 8
2008-08-04 08:25:21 51°13.686 2°55.814 97.5 2.8 284 7.9
2008-08-04 08:25:26 51°13.687 2°55.808 96.1 2.6 282 8.1
2008-08-04 08:25:31 51°13.687 2°55.802 94.7 2.6 282 8.8
2008-08-04 08:25:36 51°13.688 2°55.797 93.1 2.4 280 8.8
2008-08-04 08:25:41 51°13.689 2°55.792 91.4 2.2 280 8.5
2008-08-04 08:25:46 51°13.689 2°55.788 89.9 2.1 278 8.8
2008-08-04 08:25:51 51°13.689 2°55.783 88.1 1.9 279 9.1
2008-08-04 08:25:56 51°13.69 2°55.78 86.4 1.7 279 9.3
2008-08-04 08:26:01 51°13.69 2°55.776 84.8 1.6 277 9.3
2008-08-04 08:26:06 51°13.69 2°55.773 83.4 1.5 276 9.5
2008-08-04 08:26:11 51°13.69 2°55.77 82.1 1.3 273 9.8
2008-08-04 08:26:16 51°13.69 2°55.767 81.1 1.2 275 9.9
2008-08-04 08:26:21 51°13.691 2°55.764 79.9 1.1 276 9.9
2008-08-04 08:26:26 51°13.691 2°55.762 78.9 0.9 278 9.8
2008-08-04 08:26:31 51°13.691 2°55.761 77.8 0.8 280 9.8
2008-08-04 08:26:36 51°13.691 2°55.76 76.8 0.6 294 10
2008-08-04 08:26:41 51°13.692 2°55.759 75.5 0.4 312 10
2008-08-04 08:26:46 51°13.692 2°55.758 73.7 0.4 352 10
2008-08-04 08:26:51 51°13.693 2°55.759 71.1 0.5 23 10
2008-08-04 08:26:56 51°13.694 2°55.759 68.1 0.7 28 9.9
2008-08-04 08:27:01 51°13.694 2°55.761 64.9 0.9 35 9.9
2008-08-04 08:27:06 51°13.695 2°55.762 61.3 1 33 9.9
2008-08-04 08:27:11 51°13.696 2°55.763 57.4 1.2 31 9.9
2008-08-04 08:27:16 51°13.698 2°55.765 53.1 1.4 30 10.1
2008-08-04 08:27:21 51°13.7 2°55.767 48.5 1.5 30 10.4
2008-08-04 08:27:26 51°13.702 2°55.768 43.5 1.5 23 10.3
2008-08-04 08:27:31 51°13.704 2°55.769 38.6 1.4 20 10
2008-08-04 08:27:36 51°13.705 2°55.77 34.9 1.1 15 9.8
2008-08-04 08:27:41 51°13.706 2°55.77 32 0.7 357 9.5
2008-08-04 08:27:46 51°13.707 2°55.769 28.9 0.4 339 9.5
2008-08-04 08:27:51 51°13.707 2°55.769 26.1 0.4 280 9.4
2008-08-04 08:27:56 51°13.707 2°55.767 23.9 0.5 235 9.5
2008-08-04 08:28:01 51°13.706 2°55.766 22.1 0.8 224 9.5
2008-08-04 08:28:06 51°13.704 2°55.766 20.6 1.1 214 9.7
2008-08-04 08:28:11 51°13.702 2°55.764 19 1.4 210 9.9
2008-08-04 08:28:16 51°13.7 2°55.763 17.8 1.6 205 -999
2008-08-04 08:28:21 51°13.698 2°55.761 16.1 1.6 205 -999
2008-08-04 08:28:26 51°13.696 2°55.76 14.9 1.4 202 -999
2008-08-04 08:28:31 51°13.695 2°55.759 14.3 1.3 207 -999
2008-08-04 08:28:36 51°13.693 2°55.758 13.6 0.9 202 -999
2008-08-04 08:28:41 51°13.693 2°55.757 12.1 0.6 223 -999
2008-08-04 08:28:46 51°13.693 2°55.757 9.7 0.2 263 -999
2008-08-04 08:28:51 51°13.693 2°55.756 6.6 0.4 331 -999
2008-08-04 08:28:55 51°13.694 2°55.756 3.1 0.5 348 -999
2008-08-04 08:29:01 51°13.695 2°55.755 359.1 0.9 343 -999
2008-08-04 08:29:06 51°13.697 2°55.755 354.5 1.2 347 -999
2008-08-04 08:29:11 51°13.699 2°55.754 349.7 1.4 342 -999
2008-08-04 08:29:16 51°13.701 2°55.752 344.2 1.7 339 -999
2008-08-04 08:29:21 51°13.703 2°55.751 339.1 1.9 334 -999
2008-08-04 08:29:26 51°13.706 2°55.748 334.9 2.3 331 -999
2008-08-04 08:29:31 51°13.709 2°55.745 331.7 2.6 328 -999
2008-08-04 08:29:36 51°13.712 2°55.742 329.4 2.9 327 10.1
2008-08-04 08:29:41 51°13.716 2°55.738 328.5 3.3 326 9.8
2008-08-04 08:29:46 51°13.72 2°55.734 327.6 3.5 325 9.7
2008-08-04 08:29:51 51°13.724 2°55.729 327.2 3.8 325 9.4
2008-08-04 08:29:56 51°13.729 2°55.724 327.3 4.2 327 9.3
2008-08-04 08:30:01 51°13.734 2°55.719 328 4.4 327 9.4
2008-08-04 08:30:06 51°13.74 2°55.713 328 4.6 328 9.5
2008-08-04 08:30:11 51°13.746 2°55.708 328.4 4.8 329 9.2
2008-08-04 08:30:16 51°13.752 2°55.702 329.1 5 329 9.1
2008-08-04 08:30:21 51°13.758 2°55.696 329.5 5.3 329 9
2008-08-04 08:30:26 51°13.764 2°55.689 329.5 5.7 328 9.1
2008-08-04 08:30:31 51°13.771 2°55.682 329.5 6.1 329 9.1
2008-08-04 08:30:36 51°13.779 2°55.675 329.7 6.6 329 9.3
2008-08-04 08:30:41 51°13.788 2°55.667 330.3 7 331 9.4
2008-08-04 08:30:46 51°13.797 2°55.66 331.1 7.4 331 9.4
2008-08-04 08:30:51 51°13.807 2°55.652 331.9 7.7 333 9.4
2008-08-04 08:30:56 51°13.817 2°55.644 332.9 7.9 333 9.4
2008-08-04 08:31:01 51°13.827 2°55.636 333.2 8.2 334 9.4
2008-08-04 08:31:06 51°13.838 2°55.628 334 6.9 335 9.4
2008-08-04 08:31:11 51°13.848 2°55.619 334.5 5.6 335 9.3
2008-08-04 08:31:16 51°13.859 2°55.611 334.2 8.9 334 9.3
2008-08-04 08:31:21 51°13.87 2°55.603 334.5 8.9 336 9.1
2008-08-04 08:31:26 51°13.882 2°55.595 335.9 9 336 9.2
2008-08-04 08:31:31 51°13.893 2°55.587 337 9 337 9.2
2008-08-04 08:31:36 51°13.905 2°55.579 337.5 9.1 335 9.2
2008-08-04 08:31:41 51°13.916 2°55.57 336.5 9.2 335 9.3
2008-08-04 08:31:46 51°13.927 2°55.561 335.7 9.1 335 9.3
2008-08-04 08:31:51 51°13.939 2°55.553 336 9.1 336 9.4
2008-08-04 08:31:56 51°13.95 2°55.545 336.7 9.2 335 9.5
2008-08-04 08:32:01 51°13.962 2°55.536 336 9.2 335 9.5
2008-08-04 08:32:06 51°13.974 2°55.527 335.4 9.2 335 9.5
2008-08-04 08:32:11 51°13.985 2°55.519 335.2 9.2 335 9.5
2008-08-04 08:32:16 51°13.997 2°55.51 335.2 9.2 335 9.5
2008-08-04 08:32:21 51°14.008 2°55.501 335.3 9.2 335 9.5
2008-08-04 08:32:26 51°14.02 2°55.493 335.4 9.2 335 9.5
2008-08-04 08:32:31 51°14.031 2°55.484 335.2 9.2 335 9.5
2008-08-04 08:32:36 51°14.043 2°55.476 335.4 9.2 337 9.5
2008-08-04 08:32:41 51°14.055 2°55.468 336.5 9.2 334 9.6
2008-08-04 08:32:46 51°14.066 2°55.459 335.7 9.2 334 9.6
2008-08-04 08:32:51 51°14.078 2°55.45 335.1 9.2 334 9.6
2008-08-04 08:32:56 51°14.089 2°55.441 335 9.2 335 9.6
2008-08-04 08:33:01 51°14.101 2°55.433 335.6 9.1 335 9.6
2008-08-04 08:33:06 51°14.112 2°55.425 335.8 8.8 335 9.6
2008-08-04 08:33:11 51°14.123 2°55.417 335.4 8.5 336 9.6
2008-08-04 08:33:16 51°14.133 2°55.41 336 8.1 336 9.7
2008-08-04 08:33:21 51°14.144 2°55.402 336.6 7.9 335 9.7
2008-08-04 08:33:26 51°14.153 2°55.395 336.2 7.7 333 9.7
2008-08-04 08:33:31 51°14.163 2°55.387 334.8 7.5 333 9.7
2008-08-04 08:33:36 51°14.172 2°55.38 334 7.4 333 9.6
2008-08-04 08:33:41 51°14.181 2°55.372 333.4 7.2 333 9.6
2008-08-04 08:33:46 51°14.19 2°55.365 333.1 7.1 332 9.7
2008-08-04 08:33:51 51°14.198 2°55.358 333 7 332 9.7
2008-08-04 08:33:56 51°14.207 2°55.35 332.5 6.9 331 9.7
2008-08-04 08:34:01 51°14.215 2°55.342 331.5 6.8 330 9.7
2008-08-04 08:34:06 51°14.223 2°55.335 330.7 6.7 329 9.7
2008-08-04 08:34:11 51°14.231 2°55.327 329.3 6.7 327 9.7
2008-08-04 08:34:16 51°14.238 2°55.318 328 6.6 325 9.3
2008-08-04 08:34:21 51°14.245 2°55.31 326 6.6 323 9.3
2008-08-04 08:34:26 51°14.253 2°55.301 324.3 6.5 321 9.5
2008-08-04 08:34:31 51°14.259 2°55.292 322 6.5 319 9.7
2008-08-04 08:34:36 51°14.266 2°55.282 320 6.5 318 9.9
2008-08-04 08:34:41 51°14.273 2°55.273 318.5 6.5 317 10.2
2008-08-04 08:34:46 51°14.28 2°55.263 316.7 6.7 316 10.2
2008-08-04 08:34:51 51°14.286 2°55.252 315.3 6.8 314 10.2
2008-08-04 08:34:56 51°14.293 2°55.241 313.5 6.9 313 10.1
2008-08-04 08:35:01 51°14.299 2°55.229 312 6.9 311 9.7
2008-08-04 08:35:06 51°14.305 2°55.218 310.3 7 311 9.7
2008-08-04 08:35:11 51°14.312 2°55.205 309 7.2 308 9.7
2008-08-04 08:35:16 51°14.318 2°55.193 307.1 7.3 307 9.8
2008-08-04 08:35:21 51°14.324 2°55.179 305.1 7.4 305 9.8
2008-08-04 08:35:26 51°14.329 2°55.166 303.4 7.5 304 9.9
2008-08-04 08:35:31 51°14.335 2°55.152 302.4 7.7 303 9.8
2008-08-04 08:35:36 51°14.341 2°55.137 301.8 8 303 9.8
2008-08-04 08:35:41 51°14.347 2°55.121 301.5 8.4 303 9.8
2008-08-04 08:35:46 51°14.354 2°55.105 301.7 8.8 301 9.6
2008-08-04 08:35:51 51°14.36 2°55.088 301 9.1 301 9.4
2008-08-04 08:35:56 51°14.367 2°55.07 300.5 9.4 302 9.7
2008-08-04 08:36:01 51°14.374 2°55.052 300.7 9.6 302 9.7
2008-08-04 08:36:06 51°14.381 2°55.034 301.8 9.8 303 9.5
2008-08-04 08:36:11 51°14.389 2°55.016 302.6 9.9 304 9.3
2008-08-04 08:36:16 51°14.397 2°54.998 303.3 10 304 9.3
2008-08-04 08:36:21 51°14.405 2°54.98 303.9 10.1 306 9.4
2008-08-04 08:36:26 51°14.414 2°54.962 305.2 10.2 308 9.2
2008-08-04 08:36:31 51°14.423 2°54.944 307.4 10.4 309 9.4
2008-08-04 08:36:36 51°14.432 2°54.926 309.1 10.5 311 9.5
2008-08-04 08:36:41 51°14.442 2°54.908 311.3 10.6 312 9.7
2008-08-04 08:36:46 51°14.452 2°54.892 313.5 10.6 315 9.7
2008-08-04 08:36:51 51°14.462 2°54.875 315.8 10.7 316 9.5
2008-08-04 08:36:56 51°14.473 2°54.86 317.6 10.7 320 9.5
2008-08-04 08:37:01 51°14.485 2°54.846 321 10.6 324 9.4
2008-08-04 08:37:06 51°14.498 2°54.833 325.3 10.6 329 9.3
2008-08-04 08:37:11 51°14.511 2°54.823 330.1 10.6 333 8.9
2008-08-04 08:37:16 51°14.524 2°54.813 335 10.6 335 8.9
2008-08-04 08:37:21 51°14.538 2°54.803 337 10.7 337 8.9
2008-08-04 08:37:26 51°14.552 2°54.795 339.9 10.7 338 8.7
2008-08-04 08:37:31 51°14.566 2°54.786 342 10.7 339 8.5
2008-08-04 08:37:36 51°14.579 2°54.777 343 10.7 337 8.6
2008-08-04 08:37:41 51°14.593 2°54.768 342.2 10.6 339 8.5
2008-08-04 08:37:46 51°14.607 2°54.76 343 10.6 342 8.4
2008-08-04 08:37:51 51°14.621 2°54.754 345.8 10.7 342 8.5
2008-08-04 08:37:56 51°14.635 2°54.746 347.2 10.7 343 8.5
2008-08-04 08:38:01 51°14.649 2°54.74 347.3 10.6 343 8.3
2008-08-04 08:38:06 51°14.664 2°54.733 348.3 10.7 345 8.5
2008-08-04 08:38:11 51°14.678 2°54.727 349.3 10.6 343 8.5
2008-08-04 08:38:16 51°14.692 2°54.72 349.3 10.7 342 8.4
2008-08-04 08:38:21 51°14.706 2°54.713 348.7 10.7 343 8.3
2008-08-04 08:38:26 51°14.72 2°54.705 348.6 10.8 341 8.5
2008-08-04 08:38:31 51°14.734 2°54.698 347.5 10.6 341 8.5
2008-08-04 08:38:36 51°14.748 2°54.69 346.5 10.6 340 8.4
2008-08-04 08:38:41 51°14.762 2°54.682 345.9 10.6 341 8.4
2008-08-04 08:38:46 51°14.776 2°54.674 345.7 10.7 342 8.6
2008-08-04 08:38:51 51°14.79 2°54.668 346.1 10.7 343 8.4
2008-08-04 08:38:56 51°14.805 2°54.66 347.3 10.7 342 8.4
2008-08-04 08:39:01 51°14.818 2°54.654 347.8 10.6 344 8.5
2008-08-04 08:39:06 51°14.832 2°54.646 348.1 10.7 339 8.2
2008-08-04 08:39:11 51°14.846 2°54.636 345.3 10.7 338 8.5
2008-08-04 08:39:16 51°14.86 2°54.627 343.2 10.6 338 8.2
2008-08-04 08:39:21 51°14.873 2°54.619 342.7 10.7 338 8.6
2008-08-04 08:39:26 51°14.887 2°54.61 342.4 10.7 337 8.4
2008-08-04 08:39:31 51°14.901 2°54.601 342.5 10.8 338 8.1
2008-08-04 08:39:36 51°14.915 2°54.592 342.5 10.8 337 8.1
2008-08-04 08:39:41 51°14.929 2°54.584 341.8 10.7 341 8
2008-08-04 08:39:46 51°14.943 2°54.576 343.7 10.7 342 7.9
2008-08-04 08:39:51 51°14.957 2°54.57 346.1 10.7 344 7.8
2008-08-04 08:39:56 51°14.971 2°54.562 347.6 10.5 340 7.7
2008-08-04 08:40:01 51°14.985 2°54.555 346.8 10.4 341 7.5
2008-08-04 08:40:06 51°14.998 2°54.546 345.3 10.4 338 7.7
2008-08-04 08:40:11 51°15.011 2°54.537 343.7 10.3 337 7.5
2008-08-04 08:40:16 51°15.024 2°54.528 342.6 10.3 337 7.4
2008-08-04 08:40:21 51°15.037 2°54.52 342.5 10.2 337 7.4
2008-08-04 08:40:26 51°15.05 2°54.51 342.1 10.2 336 7.3
2008-08-04 08:40:31 51°15.063 2°54.502 341.8 10.1 337 7.3
2008-08-04 08:40:36 51°15.075 2°54.493 341.5 10 335 5.4
2008-08-04 08:40:41 51°15.088 2°54.484 341.2 10 337 7.4
2008-08-04 08:40:46 51°15.101 2°54.475 341.1 10 336 7.3
2008-08-04 08:40:51 51°15.113 2°54.466 340.9 9.9 337 7.4
2008-08-04 08:40:56 51°15.126 2°54.457 341.5 9.9 336 7.6
2008-08-04 08:41:01 51°15.138 2°54.449 341.2 9.9 338 7.5
2008-08-04 08:41:06 51°15.151 2°54.441 341.8 9.8 337 7.5
2008-08-04 08:41:10 51°15.161 2°54.434 341.9 9.8 336 7.6
2008-08-04 08:41:16 51°15.176 2°54.424 341.8 9.8 339 7.7
2008-08-04 08:41:21 51°15.189 2°54.415 342.5 9.9 336 7.5
2008-08-04 08:41:25 51°15.199 2°54.408 342.3 9.9 337 7.8
2008-08-04 08:41:30 51°15.211 2°54.399 341.9 9.8 336 7.7
2008-08-04 08:41:35 51°15.224 2°54.391 341.6 9.8 338 7.7
2008-08-04 08:41:40 51°15.237 2°54.383 342.4 9.8 337 7.6
2008-08-04 08:41:45 51°15.249 2°54.374 342.8 9.9 338 7.7
2008-08-04 08:41:50 51°15.262 2°54.367 343.1 9.9 339 7.9
2008-08-04 08:41:55 51°15.275 2°54.359 343.3 9.8 339 7.8
2008-08-04 08:42:00 51°15.288 2°54.351 344.2 9.9 339 7.9
2008-08-04 08:42:05 51°15.3 2°54.344 344.5 9.8 340 7.8
2008-08-04 08:42:10 51°15.313 2°54.336 345.1 9.8 339 8.1
2008-08-04 08:42:14 51°15.323 2°54.329 344.6 9.9 339 8
2008-08-04 08:42:20 51°15.339 2°54.321 344.5 9.8 340 8
2008-08-04 08:42:25 51°15.352 2°54.312 343.9 9.9 339 8
2008-08-04 08:42:29 51°15.362 2°54.306 343.7 9.9 339 8.1
2008-08-04 08:42:34 51°15.374 2°54.298 343.6 9.9 339 8.3
2008-08-04 08:42:39 51°15.387 2°54.291 344 9.8 339 8.4
2008-08-04 08:42:44 51°15.4 2°54.283 344.2 9.9 339 8.4
2008-08-04 08:42:49 51°15.413 2°54.275 343.9 10 338 8.3
2008-08-04 08:42:54 51°15.426 2°54.267 343.3 10 338 8.4
2008-08-04 08:42:59 51°15.439 2°54.259 343.1 9.9 339 8.3
2008-08-04 08:43:04 51°15.452 2°54.251 343.2 9.8 339 8.3
2008-08-04 08:43:09 51°15.464 2°54.243 343.9 9.8 339 8.2
2008-08-04 08:43:13 51°15.474 2°54.237 344.3 9.8 338 8.6
2008-08-04 08:43:18 51°15.487 2°54.229 343.8 9.9 339 8.6
2008-08-04 08:43:23 51°15.5 2°54.221 344.1 9.8 339 8.6
2008-08-04 08:43:29 51°15.515 2°54.212 343.9 9.8 338 8.8
2008-08-04 08:43:33 51°15.525 2°54.206 343.1 9.8 338 8.8
2008-08-04 08:43:38 51°15.538 2°54.198 343.2 9.8 338 8.7
2008-08-04 08:43:43 51°15.55 2°54.189 343.1 9.8 338 9.1
2008-08-04 08:43:48 51°15.563 2°54.181 342.7 9.8 338 8.9
2008-08-04 08:43:53 51°15.576 2°54.173 342.9 9.9 338 9.1
2008-08-04 08:43:58 51°15.588 2°54.164 343 9.9 338 9.1
2008-08-04 08:44:02 51°15.598 2°54.158 343.2 9.9 337 9
2008-08-04 08:44:07 51°15.611 2°54.149 343 9.9 337 9.2
2008-08-04 08:44:12 51°15.624 2°54.14 342.5 10 337 9.2
2008-08-04 08:44:17 51°15.636 2°54.132 342.6 9.9 338 9.2
2008-08-04 08:44:22 51°15.649 2°54.124 343.6 9.9 337 9.2
2008-08-04 08:44:27 51°15.662 2°54.116 343.5 9.9 338 9.3
2008-08-04 08:44:32 51°15.674 2°54.108 343.8 9.8 338 9.2
2008-08-04 08:44:37 51°15.687 2°54.1 343.9 9.8 339 9.3
2008-08-04 08:44:42 51°15.699 2°54.092 344.2 9.7 339 9.4
2008-08-04 08:44:48 51°15.714 2°54.083 344 9.7 338 9.3
2008-08-04 08:44:53 51°15.727 2°54.075 343.8 9.8 339 9.6
2008-08-04 08:44:57 51°15.737 2°54.068 343.6 9.9 337 9.5
2008-08-04 08:45:02 51°15.75 2°54.06 343.3 9.8 339 9.6
2008-08-04 08:45:07 51°15.763 2°54.053 343.8 9.8 340 9.7
2008-08-04 08:45:12 51°15.775 2°54.045 344.6 9.8 341 9.4
2008-08-04 08:45:17 51°15.788 2°54.038 346 9.8 341 9.9
2008-08-04 08:45:22 51°15.801 2°54.032 347.1 9.7 344 9.7
2008-08-04 08:45:28 51°15.817 2°54.025 349.1 9.7 344 9.8
2008-08-04 08:45:33 51°15.83 2°54.02 349.7 9.7 345 9.9
2008-08-04 08:45:37 51°15.84 2°54.016 350.5 9.8 347 10
2008-08-04 08:45:42 51°15.854 2°54.012 352.9 9.7 350 10
2008-08-04 08:45:48 51°15.87 2°54.008 355.1 9.7 351 9.9
2008-08-04 08:45:53 51°15.882 2°54.005 357 9.6 353 10
2008-08-04 08:45:57 51°15.893 2°54.003 358.2 9.6 354 9.9
2008-08-04 08:46:02 51°15.906 2°54.002 0.3 9.6 356 10
2008-08-04 08:46:07 51°15.92 2°54.001 2.1 9.6 357 10.1
2008-08-04 08:46:12 51°15.933 2°54.001 3.1 9.5 -999 9.9
2008-08-04 08:46:17 51°15.946 2°54.001 4.8 9.5 1 10
2008-08-04 08:46:22 51°15.959 2°54.003 6.9 9.5 4 10.1
2008-08-04 08:46:27 51°15.973 2°54.004 8.3 9.4 5 9.9
2008-08-04 08:46:32 51°15.985 2°54.007 9.9 9.4 8 9.8
2008-08-04 08:46:37 51°15.998 2°54.01 11.7 9.4 9 10
2008-08-04 08:46:42 51°16.011 2°54.014 13.4 9.4 12 9.8
2008-08-04 08:46:48 51°16.026 2°54.02 15.6 9.4 12 10
2008-08-04 08:46:52 51°16.036 2°54.023 16.1 9.4 13 10.1
2008-08-04 08:46:57 51°16.049 2°54.028 16.6 9.3 14 10.1
2008-08-04 08:47:02 51°16.062 2°54.033 17.1 9.4 14 10.2
2008-08-04 08:47:07 51°16.074 2°54.038 17.6 9.4 14 10.3
2008-08-04 08:47:12 51°16.087 2°54.044 18 9.4 14 10.3
2008-08-04 08:47:17 51°16.1 2°54.048 18 9.4 14 10.2
2008-08-04 08:47:22 51°16.112 2°54.054 17.3 9.3 14 10.1
2008-08-04 08:47:28 51°16.128 2°54.059 17.4 9.4 12 10.1
2008-08-04 08:47:33 51°16.14 2°54.063 17.3 9.3 12 10.1
2008-08-04 08:47:37 51°16.15 2°54.066 16 9.3 9 10.1
2008-08-04 08:47:42 51°16.163 2°54.068 12.3 9.3 5 10.3
2008-08-04 08:47:48 51°16.178 2°54.068 8.5 9.2 359 10.2
2008-08-04 08:47:53 51°16.191 2°54.067 4.7 9.1 355 10.2
2008-08-04 08:47:57 51°16.201 2°54.064 -999 9.1 353 9.7
2008-08-04 08:48:02 51°16.214 2°54.06 356 9.2 347 10
2008-08-04 08:48:07 51°16.226 2°54.054 351.7 9.2 343 10
2008-08-04 08:48:13 51°16.24 2°54.045 347.7 9.2 338 10
2008-08-04 08:48:17 51°16.249 2°54.038 343.4 9.2 333 10
2008-08-04 08:48:22 51°16.26 2°54.028 339.3 9.3 329 10.1
2008-08-04 08:48:27 51°16.271 2°54.016 334.8 9.4 324 10.2
2008-08-04 08:48:32 51°16.281 2°54.003 331.6 9.4 321 10.2
2008-08-04 08:48:37 51°16.291 2°53.989 326.5 9.6 317 10.2
2008-08-04 08:48:42 51°16.3 2°53.974 323.6 9.7 316 10.3
2008-08-04 08:48:47 51°16.31 2°53.958 321.8 9.8 315 10.3
2008-08-04 08:48:52 51°16.32 2°53.943 321.3 9.9 316 10.4
2008-08-04 08:48:57 51°16.329 2°53.928 321.7 10 315 10.3
2008-08-04 08:49:02 51°16.339 2°53.912 322 10 316 10.3
2008-08-04 08:49:07 51°16.35 2°53.897 322.2 10 316 10.3
2008-08-04 08:49:12 51°16.359 2°53.882 322.8 9.9 317 10.2
2008-08-04 08:49:17 51°16.37 2°53.867 323.3 9.8 317 10.2
2008-08-04 08:49:22 51°16.379 2°53.852 323 9.9 315 10.4
2008-08-04 08:49:27 51°16.389 2°53.837 322.4 9.9 316 10.3
2008-08-04 08:49:33 51°16.401 2°53.818 322 10 315 10.3
2008-08-04 08:49:37 51°16.409 2°53.805 321.8 10 316 10.3
2008-08-04 08:49:42 51°16.419 2°53.79 322.2 10.1 316 10.4
2008-08-04 08:49:48 51°16.431 2°53.771 322.4 10.1 316 10.3
2008-08-04 08:49:52 51°16.439 2°53.759 322.3 10.1 315 10.3
2008-08-04 08:49:57 51°16.449 2°53.743 322.3 10.2 315 10.4
2008-08-04 08:50:02 51°16.459 2°53.727 322.2 10.3 316 10.3
2008-08-04 08:50:07 51°16.469 2°53.711 322.5 10.4 316 10.4
2008-08-04 08:50:13 51°16.482 2°53.691 322.6 10.6 315 10.5
2008-08-04 08:50:17 51°16.49 2°53.678 322.6 10.7 316 10.4
2008-08-04 08:50:22 51°16.501 2°53.662 322.8 10.7 315 10.4
2008-08-04 08:50:27 51°16.512 2°53.645 322.5 10.9 315 10.4
2008-08-04 08:50:33 51°16.524 2°53.624 321.8 10.9 315 10.3
2008-08-04 08:50:37 51°16.533 2°53.61 321.9 11.1 315 10.4
2008-08-04 08:50:42 51°16.544 2°53.593 321.9 11.2 315 10.4
2008-08-04 08:50:47 51°16.556 2°53.576 322.1 11.4 316 10.4
2008-08-04 08:50:52 51°16.567 2°53.558 322.2 11.4 316 10.4
2008-08-04 08:50:57 51°16.578 2°53.54 322 11.5 316 10.4
2008-08-04 08:51:02 51°16.59 2°53.522 321.4 11.5 315 10.3
2008-08-04 08:51:07 51°16.601 2°53.504 321.2 11.6 316 10.4
2008-08-04 08:51:12 51°16.613 2°53.486 321.9 11.6 317 10.3
2008-08-04 08:51:17 51°16.624 2°53.469 322.7 11.6 317 10.3
2008-08-04 08:51:22 51°16.636 2°53.451 322.8 11.7 317 10.4
2008-08-04 08:51:27 51°16.648 2°53.434 323.2 11.7 318 10.3
2008-08-04 08:51:33 51°16.663 2°53.413 323.6 11.7 318 10.3
2008-08-04 08:51:37 51°16.673 2°53.4 323.6 11.7 319 10.3
2008-08-04 08:51:42 51°16.685 2°53.383 323.5 11.7 318 10.2
2008-08-04 08:51:47 51°16.697 2°53.365 323.3 11.7 318 10.2
2008-08-04 08:51:52 51°16.709 2°53.349 323.1 11.5 320 10.4
2008-08-04 08:51:57 51°16.721 2°53.332 323 11.6 318 10.3
2008-08-04 08:52:02 51°16.733 2°53.316 324.3 11.5 323 10.2
2008-08-04 08:52:07 51°16.746 2°53.301 325.9 11.5 321 10.1
2008-08-04 08:52:12 51°16.759 2°53.285 327.9 11.5 326 10.1
2008-08-04 08:52:17 51°16.773 2°53.272 330.9 11.4 329 9.8
2008-08-04 08:52:22 51°16.786 2°53.259 332.7 11.4 329 10.1
2008-08-04 08:52:27 51°16.8 2°53.247 333.9 11.3 331 9.8
2008-08-04 08:52:33 51°16.816 2°53.232 335.2 11.3 331 9.7
2008-08-04 08:52:37 51°16.827 2°53.223 335.9 11.3 332 9.4
2008-08-04 08:52:42 51°16.841 2°53.212 336.3 11.3 333 9.3
2008-08-04 08:52:47 51°16.855 2°53.201 336.9 11.2 334 8.6
2008-08-04 08:52:52 51°16.869 2°53.192 340.3 11 338 7.9
2008-08-04 08:52:57 51°16.883 2°53.182 342.2 10.8 340 7.5
2008-08-04 08:53:02 51°16.898 2°53.175 343.6 10.7 340 7.2
2008-08-04 08:53:07 51°16.911 2°53.167 345.2 10.6 343 7.2
2008-08-04 08:53:12 51°16.926 2°53.161 345.9 10.4 344 7.1
2008-08-04 08:53:17 51°16.939 2°53.155 347.5 10.4 346 6.9
2008-08-04 08:53:22 51°16.954 2°53.151 350.2 10.4 351 6.8
2008-08-04 08:53:27 51°16.968 2°53.147 353.4 10.4 351 7.1
2008-08-04 08:53:32 51°16.982 2°53.146 355.8 10.4 357 6.9
2008-08-04 08:53:37 51°16.997 2°53.144 358.1 10.3 356 7.4
2008-08-04 08:53:42 51°17.011 2°53.145 1.2 10.4 4 7.1
2008-08-04 08:53:48 51°17.028 2°53.147 5 10.3 3 7.1
2008-08-04 08:53:52 51°17.04 2°53.149 6.4 10.4 8 7.3
2008-08-04 08:53:57 51°17.054 2°53.152 8.6 10.4 6 7.4
2008-08-04 08:54:02 51°17.068 2°53.155 9.8 10.5 10 7.3
2008-08-04 08:54:07 51°17.083 2°53.158 10.9 10.5 8 7.5
2008-08-04 08:54:12 51°17.097 2°53.163 11.9 10.6 12 7.8
2008-08-04 08:54:17 51°17.112 2°53.166 12.2 10.6 10 7.6
2008-08-04 08:54:22 51°17.126 2°53.172 13.2 10.6 11 7.6
2008-08-04 08:54:27 51°17.141 2°53.176 13.8 10.7 12 7.6
2008-08-04 08:54:33 51°17.157 2°53.183 15 10.6 14 7.6
2008-08-04 08:54:37 51°17.169 2°53.187 14.9 10.6 15 7.9
2008-08-04 08:54:42 51°17.183 2°53.194 16.4 10.5 15 7.9
2008-08-04 08:54:48 51°17.2 2°53.202 17.5 10.5 19 7.8
2008-08-04 08:54:53 51°17.214 2°53.211 20 10.5 20 7.9
2008-08-04 08:54:57 51°17.225 2°53.218 21.9 10.6 22 7.9
2008-08-04 08:55:02 51°17.238 2°53.227 23.5 10.6 21 8.4
2008-08-04 08:55:07 51°17.252 2°53.237 24.6 10.5 27 8
2008-08-04 08:55:13 51°17.268 2°53.249 26.2 10.6 27 7.9
2008-08-04 08:55:17 51°17.278 2°53.257 27.1 10.6 25 7.9
2008-08-04 08:55:22 51°17.291 2°53.268 27.8 10.7 29 8
2008-08-04 08:55:27 51°17.304 2°53.279 27.5 10.6 26 8.3
2008-08-04 08:55:32 51°17.317 2°53.292 29.8 10.6 35 8.1
2008-08-04 08:55:37 51°17.328 2°53.305 34.3 10.5 34 8.1
2008-08-04 08:55:42 51°17.34 2°53.319 35.9 10.6 38 8.1
2008-08-04 08:55:47 51°17.351 2°53.334 37.1 10.5 40 8.1
2008-08-04 08:55:53 51°17.364 2°53.352 38.7 10.6 42 8.1
2008-08-04 08:55:57 51°17.372 2°53.366 42.2 10.6 45 8.1
2008-08-04 08:56:02 51°17.383 2°53.382 43.4 10.6 48 8.2
2008-08-04 08:56:07 51°17.392 2°53.401 47.3 10.6 49 8.2
2008-08-04 08:56:12 51°17.402 2°53.418 46.7 10.6 48 8.2
2008-08-04 08:56:17 51°17.41 2°53.437 48.4 10.6 55 8.1
2008-08-04 08:56:22 51°17.42 2°53.455 50.2 10.6 51 8.1
2008-08-04 08:56:27 51°17.429 2°53.474 50.2 10.7 53 8
2008-08-04 08:56:32 51°17.437 2°53.493 51.4 10.6 52 8.2
2008-08-04 08:56:37 51°17.446 2°53.511 50.4 10.7 55 8.1
2008-08-04 08:56:42 51°17.454 2°53.532 53.2 10.6 53 7.9
2008-08-04 08:56:48 51°17.465 2°53.554 51.8 10.7 53 7.9
2008-08-04 08:56:53 51°17.473 2°53.573 52.2 10.7 55 7.9
2008-08-04 08:56:57 51°17.48 2°53.588 52.2 10.6 52 8.2
2008-08-04 08:57:02 51°17.488 2°53.608 52.2 10.7 57 8.2
2008-08-04 08:57:07 51°17.498 2°53.626 51.5 10.6 49 8
2008-08-04 08:57:12 51°17.506 2°53.646 51 10.7 57 7.9
2008-08-04 08:57:17 51°17.515 2°53.664 51.6 10.7 51 8.1
2008-08-04 08:57:22 51°17.524 2°53.683 51.4 10.7 53 8.1
2008-08-04 08:57:27 51°17.533 2°53.701 49.3 10.7 52 7.8
2008-08-04 08:57:33 51°17.544 2°53.724 51 10.6 52 7.9
2008-08-04 08:57:37 51°17.552 2°53.738 49.5 10.6 51 7.7
2008-08-04 08:57:42 51°17.561 2°53.757 49.8 10.6 51 8
2008-08-04 08:57:47 51°17.57 2°53.775 49.6 10.7 51 8.2
2008-08-04 08:57:53 51°17.581 2°53.797 49.6 10.5 51 8.2
2008-08-04 08:57:57 51°17.589 2°53.811 49.3 10.7 52 8
2008-08-04 08:58:02 51°17.598 2°53.83 49.6 10.7 49 7.9
2008-08-04 08:58:07 51°17.608 2°53.847 48.5 10.6 51 7.8
2008-08-04 08:58:12 51°17.617 2°53.866 49.7 10.6 52 8
2008-08-04 08:58:17 51°17.627 2°53.884 49.4 10.7 50 7.8
2008-08-04 08:58:22 51°17.636 2°53.903 49.2 10.6 50 7.9
2008-08-04 08:58:27 51°17.646 2°53.921 49.3 10.6 50 7.9
2008-08-04 08:58:32 51°17.655 2°53.938 48.2 10.6 50 7.8
2008-08-04 08:58:37 51°17.665 2°53.956 47.8 10.6 48 8
2008-08-04 08:58:42 51°17.674 2°53.974 48.8 10.5 49 7.9
2008-08-04 08:58:48 51°17.686 2°53.996 47.5 10.7 50 8.3
2008-08-04 08:58:53 51°17.696 2°54.012 47.8 10.6 45 8.2
2008-08-04 08:58:57 51°17.704 2°54.027 47.1 10.6 50 8
2008-08-04 08:59:02 51°17.713 2°54.043 47.1 9.8 43 8.4
2008-08-04 08:59:07 51°17.723 2°54.057 43.9 9.3 43 8.1
2008-08-04 08:59:12 51°17.733 2°54.069 41.6 8.5 35 8.2
2008-08-04 08:59:17 51°17.742 2°54.079 36.9 7.9 35 8.2
2008-08-04 08:59:22 51°17.751 2°54.086 33 7 29 8
2008-08-04 08:59:28 51°17.76 2°54.093 29.6 6.4 22 8.2
2008-08-04 08:59:33 51°17.767 2°54.098 25.2 5.8 21 8.2
2008-08-04 08:59:37 51°17.773 2°54.101 21.1 5.4 16 8.1
2008-08-04 08:59:42 51°17.78 2°54.103 17.2 5.1 13 8.2
2008-08-04 08:59:47 51°17.787 2°54.105 13.8 4.8 8 8.5
2008-08-04 08:59:53 51°17.794 2°54.106 10.8 4.6 4 8.4
2008-08-04 08:59:57 51°17.799 2°54.106 7.4 4.4 -999 8.7
2008-08-04 09:00:02 51°17.805 2°54.105 4.7 4.1 356 8.5
2008-08-04 09:00:07 51°17.81 2°54.104 2.2 3.9 352 8.8
2008-08-04 09:00:12 51°17.816 2°54.103 359.2 3.8 347 8.8
2008-08-04 09:00:17 51°17.82 2°54.101 356.3 3.8 345 8.9
2008-08-04 09:00:22 51°17.825 2°54.098 353.5 3.7 343 8.8
2008-08-04 09:00:27 51°17.83 2°54.096 351.5 3.6 341 8.9
2008-08-04 09:00:32 51°17.835 2°54.093 350.5 3.6 341 8.9
2008-08-04 09:00:37 51°17.839 2°54.09 349 3.5 339 8.6
2008-08-04 09:00:42 51°17.844 2°54.087 348.2 3.5 337 8.7
2008-08-04 09:00:48 51°17.849 2°54.083 347.2 3.4 336 8.7
2008-08-04 09:00:53 51°17.853 2°54.08 346.7 3.4 335 8.9
2008-08-04 09:00:57 51°17.857 2°54.077 345.9 3.4 333 8.7
2008-08-04 09:01:02 51°17.861 2°54.074 345.3 3.4 332 8.6
2008-08-04 09:01:07 51°17.865 2°54.07 344.7 3.4 332 8.9
2008-08-04 09:01:12 51°17.869 2°54.067 344.5 3.4 332 8.9
2008-08-04 09:01:17 51°17.873 2°54.063 344.4 3.4 331 8.7
2008-08-04 09:01:22 51°17.877 2°54.06 344.5 3.4 332 8.6
2008-08-04 09:01:28 51°17.882 2°54.055 344.8 3.3 331 8.8
2008-08-04 09:01:33 51°17.886 2°54.052 344.7 3.1 331 8.7
2008-08-04 09:01:37 51°17.889 2°54.05 344.9 2.9 329 8.6
2008-08-04 09:01:42 51°17.892 2°54.046 344.6 2.7 327 8.8
2008-08-04 09:01:47 51°17.895 2°54.043 344 2.6 328 8.8
2008-08-04 09:01:53 51°17.899 2°54.04 343.2 2.4 326 8.8
2008-08-04 09:01:57 51°17.901 2°54.037 342.4 2.3 323 8.8
2008-08-04 09:02:02 51°17.903 2°54.034 341.8 2.2 323 8.9
2008-08-04 09:02:07 51°17.905 2°54.031 340.6 2.1 320 8.9
2008-08-04 09:02:13 51°17.908 2°54.027 339.8 2 317 9
2008-08-04 09:02:17 51°17.909 2°54.025 339 1.8 314 8.8
2008-08-04 09:02:22 51°17.911 2°54.022 338.4 1.7 312 8.9
2008-08-04 09:02:27 51°17.912 2°54.019 337.9 1.6 311 8.8
2008-08-04 09:02:32 51°17.913 2°54.017 337.7 1.4 316 8.9
2008-08-04 09:02:37 51°17.915 2°54.015 336.9 1.3 314 9.1
2008-08-04 09:02:42 51°17.916 2°54.013 337.3 1.2 310 8.7
2008-08-04 09:02:48 51°17.917 2°54.011 337.9 1.2 305 8.9
2008-08-04 09:02:52 51°17.918 2°54.009 338.1 1.1 301 8.8
2008-08-04 09:02:57 51°17.919 2°54.007 338.1 1 297 8.8
2008-08-04 09:03:02 51°17.919 2°54.005 338.1 0.9 295 8.9
2008-08-04 09:03:07 51°17.919 2°54.003 337.9 0.9 291 9
2008-08-04 09:03:12 51°17.92 2°54.001 337.6 0.8 289 8.7
2008-08-04 09:03:17 51°17.92 2°54 337.4 0.8 284 8.8
2008-08-04 09:03:22 51°17.92 2°53.998 337.2 0.8 280 8.9
2008-08-04 09:03:28 51°17.92 2°53.996 336.7 0.7 280 8.9
2008-08-04 09:03:33 51°17.92 2°53.994 336.3 0.7 275 8.9
2008-08-04 09:03:37 51°17.92 2°53.993 335.8 0.7 278 9
2008-08-04 09:03:42 51°17.92 2°53.991 335.6 0.7 274 8.9
2008-08-04 09:03:48 51°17.92 2°53.99 335.7 0.7 262 8.9
2008-08-04 09:03:53 51°17.92 2°53.988 335.9 0.5 253 8.7
2008-08-04 09:03:57 51°17.92 2°53.988 336.2 0.6 245 8.8
2008-08-04 09:04:02 51°17.919 2°53.986 336.6 0.5 247 9.1
2008-08-04 09:04:08 51°17.919 2°53.985 336.8 0.6 243 8.9
2008-08-04 09:04:13 51°17.919 2°53.984 337.1 0.6 239 9
2008-08-04 09:04:17 51°17.918 2°53.983 337.2 0.6 235 9
2008-08-04 09:04:22 51°17.918 2°53.982 337.3 0.5 235 9.1
2008-08-04 09:04:27 51°17.917 2°53.981 337.4 0.6 231 9.2
2008-08-04 09:04:32 51°17.916 2°53.98 337.6 0.6 221 9.2
2008-08-04 09:04:37 51°17.916 2°53.979 337.7 0.7 216 8.8
2008-08-04 09:04:42 51°17.915 2°53.978 338.1 0.6 206 8.8
2008-08-04 09:04:48 51°17.914 2°53.978 338.2 0.6 206 8.8
2008-08-04 09:04:52 51°17.913 2°53.977 339.3 0.8 202 8.6
2008-08-04 09:04:57 51°17.913 2°53.977 340.8 0.7 196 8.6
2008-08-04 09:05:02 51°17.912 2°53.976 341.7 0.7 203 8.7
2008-08-04 09:05:07 51°17.911 2°53.976 342.7 0.7 186 8.7
2008-08-04 09:05:12 51°17.91 2°53.976 344 0.8 198 8.8
2008-08-04 09:05:17 51°17.908 2°53.975 345.1 0.7 191 9
2008-08-04 09:05:22 51°17.908 2°53.976 345.8 0.8 188 8.7
2008-08-04 09:05:28 51°17.906 2°53.975 347.4 0.9 188 8.9
2008-08-04 09:05:33 51°17.905 2°53.975 348 0.9 189 8.8
2008-08-04 09:05:37 51°17.904 2°53.975 349.1 0.9 182 8.8
2008-08-04 09:05:42 51°17.903 2°53.975 349.9 0.9 184 8.9
2008-08-04 09:05:48 51°17.902 2°53.975 350.9 0.9 176 9
2008-08-04 09:05:52 51°17.901 2°53.975 352.1 1 192 8.9
2008-08-04 09:05:57 51°17.9 2°53.975 353.1 1 188 9
2008-08-04 09:06:02 51°17.898 2°53.975 354.1 0.9 189 8.9
2008-08-04 09:06:08 51°17.897 2°53.974 354.9 0.9 183 8.9
2008-08-04 09:06:13 51°17.895 2°53.974 355.2 0.9 180 9.1
2008-08-04 09:06:17 51°17.894 2°53.974 356.2 0.9 174 9.1
2008-08-04 09:06:22 51°17.893 2°53.974 356.8 1 180 9.1
2008-08-04 09:06:27 51°17.891 2°53.974 357.6 1 184 8.8
2008-08-04 09:06:33 51°17.889 2°53.974 358.4 1.1 180 8.8
2008-08-04 09:06:37 51°17.888 2°53.973 359.2 1.1 186 8.9
2008-08-04 09:06:42 51°17.887 2°53.973 359.6 1 182 9.1
2008-08-04 09:06:47 51°17.885 2°53.973 359.9 1 188 9.1
2008-08-04 09:06:52 51°17.884 2°53.972 0.1 1.1 183 8.7
2008-08-04 09:06:57 51°17.882 2°53.972 0.7 1.2 190 8.9
2008-08-04 09:07:02 51°17.881 2°53.972 1.2 1.2 188 8.9
2008-08-04 09:07:07 51°17.879 2°53.971 1.9 1.2 190 8.7
2008-08-04 09:07:12 51°17.878 2°53.971 2.8 1.1 190 8.7
2008-08-04 09:07:17 51°17.876 2°53.971 3.5 1.1 189 8.6
2008-08-04 09:07:22 51°17.874 2°53.97 3.9 1.1 189 8.7
2008-08-04 09:07:28 51°17.872 2°53.97 4 1.2 182 8.9
2008-08-04 09:07:33 51°17.871 2°53.97 4.2 1.1 189 9.1
2008-08-04 09:07:37 51°17.87 2°53.97 4.3 1.1 183 8.9
2008-08-04 09:07:42 51°17.868 2°53.969 4.3 1.1 188 8.7
2008-08-04 09:07:48 51°17.866 2°53.969 5 1.2 185 8.6
2008-08-04 09:07:52 51°17.865 2°53.969 5 1.2 183 8.7
2008-08-04 09:07:57 51°17.864 2°53.969 5.2 1.2 184 8.6
2008-08-04 09:08:02 51°17.862 2°53.969 5.5 1.2 184 8.6
2008-08-04 09:08:07 51°17.86 2°53.968 5.7 1.3 189 8.7
2008-08-04 09:08:13 51°17.858 2°53.968 6.2 1.3 191 8.7
2008-08-04 09:08:17 51°17.857 2°53.969 6.5 1.2 185 8.9
2008-08-04 09:08:22 51°17.855 2°53.969 7.1 1.2 186 8.7
2008-08-04 09:08:28 51°17.853 2°53.968 7.2 1.3 185 8.7
2008-08-04 09:08:33 51°17.851 2°53.968 7.7 1.3 180 8.8
2008-08-04 09:08:37 51°17.85 2°53.968 8 1.3 184 8.8
2008-08-04 09:08:42 51°17.848 2°53.968 8.6 1.2 187 8.9
2008-08-04 09:08:47 51°17.847 2°53.968 9.3 1.2 183 8.7
2008-08-04 09:08:53 51°17.845 2°53.968 10.1 1.2 184 8.6
2008-08-04 09:08:57 51°17.843 2°53.968 10.5 1.2 181 9
2008-08-04 09:09:02 51°17.842 2°53.968 10.6 1.2 182 8.9
2008-08-04 09:09:07 51°17.84 2°53.967 10.9 1.2 180 9
2008-08-04 09:09:12 51°17.838 2°53.967 10.5 1.2 179 8.9
2008-08-04 09:09:17 51°17.836 2°53.967 10.9 1.3 181 8.8
2008-08-04 09:09:22 51°17.835 2°53.967 11.2 1.2 186 8.8
2008-08-04 09:09:27 51°17.833 2°53.967 11.5 1.2 186 8.9
2008-08-04 09:09:33 51°17.831 2°53.966 11.6 1.2 189 8.9
2008-08-04 09:09:37 51°17.83 2°53.966 11.6 1.2 183 8.8
2008-08-04 09:09:42 51°17.828 2°53.966 11.7 1.2 180 8.7
2008-08-04 09:09:47 51°17.827 2°53.966 11.9 1.2 186 8.9
2008-08-04 09:09:52 51°17.825 2°53.966 12.2 1.1 180 8.9
2008-08-04 09:09:57 51°17.824 2°53.965 12.2 1.2 191 8.6
2008-08-04 09:10:02 51°17.822 2°53.965 12.6 1.2 181 8.6
2008-08-04 09:10:07 51°17.82 2°53.965 12.8 1.2 193 8.8
2008-08-04 09:10:12 51°17.819 2°53.965 12.6 1.1 184 9.1
2008-08-04 09:10:17 51°17.817 2°53.965 13 1.1 189 8.6
2008-08-04 09:10:22 51°17.815 2°53.965 13 1.2 183 8.7
2008-08-04 09:10:28 51°17.813 2°53.964 13.5 1.2 185 8.7
2008-08-04 09:10:33 51°17.811 2°53.964 13.4 1.3 177 8.7
2008-08-04 09:10:37 51°17.81 2°53.964 13.4 1.3 181 8.4
2008-08-04 09:10:42 51°17.809 2°53.964 13.7 1.2 189 8.6
2008-08-04 09:10:48 51°17.807 2°53.964 13.5 1.2 182 8.5
2008-08-04 09:10:52 51°17.805 2°53.964 13.4 1.2 186 8.7
2008-08-04 09:10:57 51°17.804 2°53.964 13.2 1.2 176 9
2008-08-04 09:11:02 51°17.802 2°53.963 13.2 1.2 185 8.7
2008-08-04 09:11:07 51°17.8 2°53.963 12.2 1.2 175 9
2008-08-04 09:11:13 51°17.798 2°53.963 11.7 1.2 185 8.8
2008-08-04 09:11:17 51°17.797 2°53.963 11.5 1.2 180 8.8
2008-08-04 09:11:22 51°17.796 2°53.963 11.4 1.1 188 8.8
2008-08-04 09:11:27 51°17.794 2°53.962 11 1.2 178 8.9
2008-08-04 09:11:32 51°17.792 2°53.962 10.7 1.2 184 9
2008-08-04 09:11:37 51°17.791 2°53.962 10.2 1.1 177 8.8
2008-08-04 09:11:42 51°17.79 2°53.962 10.3 0.9 187 8.8
2008-08-04 09:11:47 51°17.788 2°53.962 10.2 0.7 181 8.9
2008-08-04 09:11:52 51°17.788 2°53.962 9.5 0.4 195 8.9
2008-08-04 09:11:57 51°17.788 2°53.962 8.1 0.1 185 8.9
2008-08-04 09:12:02 51°17.788 2°53.962 6.4 0.3 343 8.7
2008-08-04 09:12:07 51°17.789 2°53.961 3.9 0.7 352 8.8
2008-08-04 09:12:12 51°17.79 2°53.961 1.7 1.1 349 8.6
2008-08-04 09:12:17 51°17.792 2°53.96 358.4 1.6 343 8.6
2008-08-04 09:12:22 51°17.795 2°53.958 354.3 2 337 8.9
2008-08-04 09:12:28 51°17.798 2°53.956 351.2 2.3 333 8.9
2008-08-04 09:12:33 51°17.802 2°53.953 348.4 2.7 333 8.9
2008-08-04 09:12:37 51°17.805 2°53.951 346.4 3 333 8.6
2008-08-04 09:12:42 51°17.809 2°53.948 345.8 3.3 334 8.9
2008-08-04 09:12:47 51°17.813 2°53.944 345.4 3.5 334 9
2008-08-04 09:12:52 51°17.818 2°53.941 345.5 3.8 335 9
2008-08-04 09:12:57 51°17.823 2°53.937 345.9 4 335 8.8
2008-08-04 09:13:02 51°17.828 2°53.933 346.7 4.2 338 9.1
2008-08-04 09:13:07 51°17.834 2°53.929 347.5 4.3 337 8.7
2008-08-04 09:13:13 51°17.84 2°53.925 348.5 4.4 339 9.1
2008-08-04 09:13:17 51°17.845 2°53.923 349.1 4.6 340 8.9
2008-08-04 09:13:22 51°17.852 2°53.919 349.9 4.7 343 8.8
2008-08-04 09:13:27 51°17.858 2°53.916 350.6 4.8 342 8.8
2008-08-04 09:13:33 51°17.865 2°53.912 351.3 4.9 343 8.9
2008-08-04 09:13:37 51°17.871 2°53.91 352 4.9 344 8.7
2008-08-04 09:13:42 51°17.877 2°53.907 352.6 5 344 8.9
2008-08-04 09:13:47 51°17.884 2°53.904 352.8 5.1 345 9
2008-08-04 09:13:53 51°17.892 2°53.9 352.8 5.2 345 9.2
2008-08-04 09:13:57 51°17.898 2°53.898 353 5.2 346 8.8
2008-08-04 09:14:02 51°17.905 2°53.895 353.3 5.3 345 9
2008-08-04 09:14:07 51°17.912 2°53.892 353.2 5.3 346 9.1
2008-08-04 09:14:12 51°17.919 2°53.889 353.2 5.3 346 9.1
2008-08-04 09:14:17 51°17.926 2°53.886 353.4 5.2 346 8.9
2008-08-04 09:14:22 51°17.934 2°53.883 353.9 5.3 346 8.9
2008-08-04 09:14:28 51°17.942 2°53.88 354.2 5.3 346 9
2008-08-04 09:14:33 51°17.949 2°53.877 354.1 5.3 347 9
2008-08-04 09:14:37 51°17.955 2°53.875 354.1 5.3 348 9
2008-08-04 09:14:42 51°17.963 2°53.872 354.2 5.4 347 9.3
2008-08-04 09:14:47 51°17.97 2°53.87 354.1 5.5 348 9.3
2008-08-04 09:14:52 51°17.977 2°53.867 354.4 5.5 347 9.1
2008-08-04 09:14:57 51°17.985 2°53.864 354.1 5.5 346 9.1
2008-08-04 09:15:02 51°17.992 2°53.861 354.1 5.5 345 9.1
2008-08-04 09:15:08 51°18 2°53.858 353.4 5.4 345 9
2008-08-04 09:15:13 51°18.008 2°53.855 353.4 5.4 348 9.2
2008-08-04 09:15:17 51°18.013 2°53.853 354.1 5.1 346 9.3
2008-08-04 09:15:22 51°18.02 2°53.85 353.9 5.2 346 9.2
2008-08-04 09:15:28 51°18.029 2°53.847 353.5 5.2 345 9.3
2008-08-04 09:15:33 51°18.036 2°53.844 353.6 5.3 346 9.2
2008-08-04 09:15:37 51°18.042 2°53.841 353 5.3 344 9.2
2008-08-04 09:15:42 51°18.049 2°53.839 353.4 5.3 346 9.3
2008-08-04 09:15:47 51°18.056 2°53.835 353.2 5.3 344 9.5
2008-08-04 09:15:53 51°18.064 2°53.832 352.7 5.3 345 9.5
2008-08-04 09:15:57 51°18.07 2°53.829 352.6 5.4 345 9.6
2008-08-04 09:16:02 51°18.077 2°53.826 352.7 5.3 345 9.5
2008-08-04 09:16:07 51°18.084 2°53.823 352.9 5.4 344 9.6
2008-08-04 09:16:13 51°18.093 2°53.82 353.1 5.4 346 9.5
2008-08-04 09:16:17 51°18.099 2°53.817 353.4 5.3 344 9.5
2008-08-04 09:16:22 51°18.106 2°53.814 353.4 5.4 344 9.6
2008-08-04 09:16:28 51°18.115 2°53.81 353.3 5.5 345 9.6
2008-08-04 09:16:33 51°18.122 2°53.807 353 5.4 346 9.6
2008-08-04 09:16:37 51°18.127 2°53.805 353.1 5.3 345 9.8
2008-08-04 09:16:42 51°18.135 2°53.802 353.4 5.4 345 9.7
2008-08-04 09:16:47 51°18.142 2°53.799 353.2 5.4 345 9.7
2008-08-04 09:16:52 51°18.149 2°53.795 353.1 5.4 346 9.6
2008-08-04 09:16:57 51°18.156 2°53.793 352.8 5.5 347 9.9
2008-08-04 09:17:02 51°18.164 2°53.79 352.6 5.4 347 9.6
2008-08-04 09:17:08 51°18.173 2°53.787 353.9 5.5 347 9.5
2008-08-04 09:17:13 51°18.18 2°53.784 354.1 5.5 346 9.5
2008-08-04 09:17:17 51°18.186 2°53.781 354 5.3 346 9.3
2008-08-04 09:17:22 51°18.193 2°53.778 353.7 5.2 345 9.5
2008-08-04 09:17:28 51°18.201 2°53.775 354.1 5.2 347 9.8
2008-08-04 09:17:33 51°18.208 2°53.772 354 5.3 346 9.9
2008-08-04 09:17:37 51°18.214 2°53.77 353.2 5.4 345 9.8
2008-08-04 09:17:42 51°18.222 2°53.767 353.6 5.4 346 9.8
2008-08-04 09:17:48 51°18.23 2°53.763 353.5 5.4 344 9.9
2008-08-04 09:17:53 51°18.238 2°53.76 353.1 5.4 345 10.1
2008-08-04 09:17:57 51°18.243 2°53.757 353 5.4 345 9.9
2008-08-04 09:18:02 51°18.251 2°53.754 353.4 5.3 346 9.9
2008-08-04 09:18:07 51°18.258 2°53.751 353.4 5.4 346 10
2008-08-04 09:18:12 51°18.265 2°53.749 353.5 5.4 346 10.1
2008-08-04 09:18:17 51°18.273 2°53.746 353.4 5.4 345 9.9
2008-08-04 09:18:22 51°18.28 2°53.742 353.9 5.4 345 9.7
2008-08-04 09:18:28 51°18.288 2°53.739 353.9 5.4 347 10
2008-08-04 09:18:33 51°18.296 2°53.736 353.6 5.4 346 10.1
2008-08-04 09:18:37 51°18.302 2°53.734 353.5 5.3 347 10
2008-08-04 09:18:42 51°18.309 2°53.731 353.9 5.3 346 10.1
2008-08-04 09:18:47 51°18.316 2°53.728 354 5.3 347 10.3
2008-08-04 09:18:52 51°18.323 2°53.726 353.7 5.4 347 10.1
2008-08-04 09:18:57 51°18.33 2°53.724 353.7 5.2 349 10.2
2008-08-04 09:19:02 51°18.337 2°53.721 354.5 5.1 346 10
2008-08-04 09:19:08 51°18.345 2°53.718 355 5.2 348 10
2008-08-04 09:19:13 51°18.352 2°53.715 354.1 4.8 343 10.2
2008-08-04 09:19:17 51°18.356 2°53.713 353.2 4.2 343 10
2008-08-04 09:19:22 51°18.361 2°53.71 352.2 3.8 340 10.1
2008-08-04 09:19:28 51°18.367 2°53.707 351.1 3.5 340 10.1
2008-08-04 09:19:33 51°18.371 2°53.704 349.6 3.2 336 10.3
2008-08-04 09:19:37 51°18.374 2°53.701 347.9 3 333 10.2
2008-08-04 09:19:42 51°18.377 2°53.698 346.5 2.8 332 10.4
2008-08-04 09:19:48 51°18.381 2°53.695 345.2 2.6 330 10.3
2008-08-04 09:19:53 51°18.384 2°53.692 344.5 2.5 327 10.2
2008-08-04 09:19:57 51°18.386 2°53.69 343.9 2.4 326 10.2
2008-08-04 09:20:02 51°18.389 2°53.687 343.7 2.2 323 10.2
2008-08-04 09:20:07 51°18.391 2°53.684 343.5 2.1 324 10.3
2008-08-04 09:20:13 51°18.394 2°53.68 343.2 2 321 10.3
2008-08-04 09:20:17 51°18.395 2°53.679 343.3 1.9 322 10.3
2008-08-04 09:20:22 51°18.397 2°53.676 343.2 1.8 318 10.2
2008-08-04 09:20:28 51°18.399 2°53.673 343.4 1.7 319 10.2
2008-08-04 09:20:33 51°18.401 2°53.67 343.7 1.6 320 10.3
2008-08-04 09:20:37 51°18.402 2°53.669 343.9 1.6 320 10.5
2008-08-04 09:20:42 51°18.404 2°53.667 343.7 1.4 324 10.3
2008-08-04 09:20:47 51°18.405 2°53.665 344.5 1.3 316 10.2
2008-08-04 09:20:52 51°18.406 2°53.663 345.1 1.2 318 10.3
2008-08-04 09:20:57 51°18.407 2°53.661 345.6 1.1 320 10.4
2008-08-04 09:21:02 51°18.408 2°53.66 346.1 1 314 10.4
2008-08-04 09:21:08 51°18.409 2°53.658 346.6 0.9 316 10.3
2008-08-04 09:21:13 51°18.41 2°53.656 346.7 0.9 307 10.3
2008-08-04 09:21:17 51°18.41 2°53.655 346.2 0.9 307 10.3
2008-08-04 09:21:22 51°18.411 2°53.653 346.1 0.9 304 10.3
2008-08-04 09:21:28 51°18.411 2°53.652 345.8 0.8 300 10.3
2008-08-04 09:21:33 51°18.412 2°53.65 345.4 0.8 299 10.4
2008-08-04 09:21:37 51°18.412 2°53.649 344.7 0.8 291 10.3
2008-08-04 09:21:42 51°18.413 2°53.647 344.7 0.8 293 10.4
2008-08-04 09:21:48 51°18.413 2°53.645 344.7 0.8 296 10.3
2008-08-04 09:21:53 51°18.414 2°53.643 345.1 0.8 292 10.3
2008-08-04 09:21:57 51°18.414 2°53.642 345.4 0.8 287 10.2
2008-08-04 09:22:02 51°18.415 2°53.64 345.2 0.7 290 10.1
2008-08-04 09:22:08 51°18.415 2°53.639 344.9 0.8 294 10.4
2008-08-04 09:22:13 51°18.416 2°53.637 344.8 0.8 291 10.3
2008-08-04 09:22:17 51°18.416 2°53.637 345.4 0.6 301 10.1
2008-08-04 09:22:22 51°18.417 2°53.636 345.5 0.7 299 10.3
2008-08-04 09:22:27 51°18.417 2°53.634 345.6 0.7 300 10.2
2008-08-04 09:22:33 51°18.418 2°53.632 346.6 0.7 298 10.1
2008-08-04 09:22:37 51°18.418 2°53.631 347.3 0.6 300 10
2008-08-04 09:22:42 51°18.419 2°53.63 348.4 0.5 311 10
2008-08-04 09:22:47 51°18.419 2°53.629 349 0.6 324 10.1
2008-08-04 09:22:53 51°18.42 2°53.628 350 0.8 319 10
2008-08-04 09:22:57 51°18.421 2°53.627 351 0.8 327 10.2
2008-08-04 09:23:02 51°18.422 2°53.626 351.9 1 326 10.3
2008-08-04 09:23:07 51°18.424 2°53.625 352.6 1.1 330 10.3
2008-08-04 09:23:13 51°18.426 2°53.623 353.1 1.3 334 10.4
2008-08-04 09:23:17 51°18.427 2°53.622 353.5 1.5 337 10.6
2008-08-04 09:23:22 51°18.429 2°53.62 354.1 1.7 336 10.4
2008-08-04 09:23:28 51°18.432 2°53.618 354.8 1.9 339 10.4
2008-08-04 09:23:32 51°18.435 2°53.617 355.4 2.2 338 10.6
2008-08-04 09:23:37 51°18.438 2°53.615 355.8 2.3 340 10.6
2008-08-04 09:23:42 51°18.441 2°53.614 356.5 2.4 343 10.5
2008-08-04 09:23:47 51°18.445 2°53.612 357 2.6 343 10.4
2008-08-04 09:23:53 51°18.449 2°53.611 357.3 2.7 347 10.2
2008-08-04 09:23:57 51°18.452 2°53.61 358.9 2.8 343 10.1
2008-08-04 09:24:02 51°18.456 2°53.609 359.4 2.8 348 9.9
2008-08-04 09:24:08 51°18.461 2°53.607 359.8 2.9 348 10.1
2008-08-04 09:24:13 51°18.465 2°53.606 359.6 3 348 10.2
2008-08-04 09:24:17 51°18.468 2°53.604 359.2 3.1 351 10.3
2008-08-04 09:24:22 51°18.473 2°53.603 359.4 3.2 349 10.4
2008-08-04 09:24:28 51°18.478 2°53.601 359.3 3.2 349 10.4
2008-08-04 09:24:33 51°18.483 2°53.6 359.1 3.3 350 10.6
2008-08-04 09:24:37 51°18.486 2°53.599 359.1 3.4 348 10.6
2008-08-04 09:24:42 51°18.491 2°53.598 359.2 3.5 350 10.7
2008-08-04 09:24:47 51°18.496 2°53.596 358.9 3.6 350 10.8
2008-08-04 09:24:53 51°18.502 2°53.594 358.9 3.6 349 10.8
2008-08-04 09:24:57 51°18.506 2°53.593 358.9 3.6 351 10.6
2008-08-04 09:25:02 51°18.51 2°53.592 359.2 3.6 350 10.7
2008-08-04 09:25:07 51°18.515 2°53.591 359 3.6 350 10.6
2008-08-04 09:25:12 51°18.52 2°53.589 359.1 3.6 350 10.6
2008-08-04 09:25:17 51°18.525 2°53.588 358.6 3.7 350 10.7
2008-08-04 09:25:22 51°18.531 2°53.586 358.4 3.5 348 10.5
2008-08-04 09:25:27 51°18.535 2°53.585 358.4 2.9 349 10.6
2008-08-04 09:25:32 51°18.538 2°53.583 358.3 2.4 342 10.7
2008-08-04 09:25:37 51°18.54 2°53.582 357.6 1.7 339 10.5
2008-08-04 09:25:42 51°18.542 2°53.58 355.7 1.2 323 10.5
2008-08-04 09:25:47 51°18.542 2°53.579 352.3 0.6 305 10.4
2008-08-04 09:25:52 51°18.542 2°53.578 349.1 0.5 252 10.4
2008-08-04 09:25:57 51°18.541 2°53.578 346.7 0.7 208 10.5
2008-08-04 09:26:02 51°18.54 2°53.577 345.6 1 193 10.6
2008-08-04 09:26:08 51°18.539 2°53.577 345.5 1 193 10.6
2008-08-04 09:26:13 51°18.537 2°53.576 346.1 1 186 10.7
2008-08-04 09:26:17 51°18.536 2°53.576 347.4 1 191 10.6
2008-08-04 09:26:22 51°18.534 2°53.576 348 1 180 10.7
2008-08-04 09:26:28 51°18.533 2°53.576 349 1.1 176 10.8
2008-08-04 09:26:32 51°18.531 2°53.575 349.9 1.3 182 10.7
2008-08-04 09:26:37 51°18.529 2°53.575 351.1 1.4 184 10.5
2008-08-04 09:26:42 51°18.528 2°53.575 352.5 1.4 181 10.5
2008-08-04 09:26:48 51°18.525 2°53.575 354.3 1.4 182 10.6
2008-08-04 09:26:53 51°18.524 2°53.574 356.2 1.3 184 10.5
2008-08-04 09:26:57 51°18.522 2°53.574 358.2 1.3 186 10.5
2008-08-04 09:27:02 51°18.52 2°53.574 359.9 1.3 179 10.6
2008-08-04 09:27:07 51°18.518 2°53.574 1.4 1.3 187 -999
2008-08-04 09:27:13 51°18.516 2°53.574 2.1 1.2 175 -999
2008-08-04 09:27:19 51°18.514 2°53.573 4.8 1.3 186 -999
2008-08-04 09:27:25 51°18.512 2°53.573 6.8 1.4 181 -999
2008-08-04 09:27:30 51°18.51 2°53.573 7.9 1.3 189 -999
2008-08-04 09:27:36 51°18.508 2°53.573 9.1 1.2 182 -999
2008-08-04 09:27:41 51°18.506 2°53.572 10.6 1.2 192 10.7
2008-08-04 09:27:46 51°18.505 2°53.572 11.3 1.2 184 10.5
2008-08-04 09:27:51 51°18.503 2°53.571 12.3 1.2 193 10.6
2008-08-04 09:27:56 51°18.501 2°53.571 12.6 1.2 181 10.6
2008-08-04 09:28:01 51°18.5 2°53.57 13.6 1 204 10.7
2008-08-04 09:28:06 51°18.499 2°53.57 14.2 0.7 183 10.7
2008-08-04 09:28:10 51°18.499 2°53.57 14.2 0.5 229 10.8
2008-08-04 09:28:15 51°18.499 2°53.569 13.2 0.2 256 10.8
2008-08-04 09:28:20 51°18.499 2°53.568 11.6 0.4 287 10.7
2008-08-04 09:28:25 51°18.5 2°53.568 9.7 0.4 295 10.8
2008-08-04 09:28:30 51°18.5 2°53.567 6.7 0.5 296 10.7
2008-08-04 09:28:35 51°18.5 2°53.567 4.7 0.4 305 10.6
2008-08-04 09:28:40 51°18.5 2°53.566 3.1 0.4 298 10.6
2008-08-04 09:28:45 51°18.501 2°53.565 1.8 0.4 298 10.6
2008-08-04 09:28:50 51°18.501 2°53.564 0.6 0.3 291 10.6
2008-08-04 09:28:55 51°18.501 2°53.564 359.9 0.3 291 10.5
2008-08-04 09:29:00 51°18.501 2°53.563 359.2 0.3 303 10.4
2008-08-04 09:29:05 51°18.501 2°53.562 358.9 0.2 288 10.3
2008-08-04 09:29:09 51°18.501 2°53.562 358.6 0.2 295 10.5
2008-08-04 09:29:14 51°18.501 2°53.561 358.6 0.1 294 10.4
2008-08-04 09:29:19 51°18.501 2°53.561 359 0.2 277 10.3
2008-08-04 09:29:24 51°18.501 2°53.56 359.1 0.2 279 10.3
2008-08-04 09:29:29 51°18.501 2°53.56 358.5 0.2 275 10.4
2008-08-04 09:29:34 51°18.501 2°53.559 358.2 0.2 275 10.5
2008-08-04 09:29:39 51°18.501 2°53.559 358.6 0.1 269 10.6
2008-08-04 09:29:44 51°18.501 2°53.558 358.7 0.2 272 10.7
2008-08-04 09:29:49 51°18.501 2°53.558 359 0.2 307 10.7
2008-08-04 09:29:53 51°18.501 2°53.557 359 0.3 292 10.8
2008-08-04 09:29:59 51°18.501 2°53.557 359.1 0.2 296 10.7
2008-08-04 09:30:03 51°18.501 2°53.556 359.1 0.3 297 10.6
2008-08-04 09:30:09 51°18.501 2°53.556 359.1 0.2 320 10.7
2008-08-04 09:30:13 51°18.502 2°53.556 359 0.2 340 10.6
2008-08-04 09:30:18 51°18.502 2°53.555 359.2 0.3 318 10.6
2008-08-04 09:30:23 51°18.502 2°53.554 359.2 0.3 342 10.6
2008-08-04 09:30:28 51°18.502 2°53.554 359.3 0.3 315 10.5
2008-08-04 09:30:33 51°18.502 2°53.553 359.3 0.3 315 10.5
2008-08-04 09:30:38 51°18.502 2°53.553 359.5 0.1 267 10.5
2008-08-04 09:30:43 51°18.503 2°53.553 359.9 0.2 257 10.5
2008-08-04 09:30:48 51°18.503 2°53.553 0.3 0.1 189 10.4
2008-08-04 09:30:53 51°18.503 2°53.552 1.5 0.2 251 10.4
2008-08-04 09:30:57 51°18.503 2°53.553 2 -999 246 10.5
2008-08-04 09:31:02 51°18.503 2°53.552 2.6 0.2 266 10.5
2008-08-04 09:31:08 51°18.503 2°53.551 2.7 0.1 303 10.5
2008-08-04 09:31:13 51°18.503 2°53.551 2.8 0.3 289 10.6
2008-08-04 09:31:17 51°18.503 2°53.55 3 0.2 302 10.7
2008-08-04 09:31:22 51°18.504 2°53.55 3.1 0.3 295 10.6
2008-08-04 09:31:27 51°18.504 2°53.55 3.4 0.2 297 10.7
2008-08-04 09:31:33 51°18.504 2°53.549 3.5 0.2 312 10.8
2008-08-04 09:31:37 51°18.504 2°53.549 2.9 0.1 321 10.8
2008-08-04 09:31:42 51°18.504 2°53.549 2.8 0.1 350 10.8
2008-08-04 09:31:47 51°18.504 2°53.548 2.8 0.1 298 10.7
2008-08-04 09:31:52 51°18.504 2°53.548 3.2 0.1 302 10.6
2008-08-04 09:31:57 51°18.504 2°53.548 3 0.2 280 10.6
2008-08-04 09:32:02 51°18.504 2°53.547 2.8 0.2 285 10.6
2008-08-04 09:32:07 51°18.505 2°53.547 2.6 0.2 292 10.7
2008-08-04 09:32:12 51°18.505 2°53.547 2.4 0.2 286 10.8
2008-08-04 09:32:17 51°18.505 2°53.547 2.3 0.2 303 10.8
2008-08-04 09:32:22 51°18.505 2°53.546 2.4 0.2 309 10.7
2008-08-04 09:32:28 51°18.505 2°53.546 2.1 0.2 313 10.6
2008-08-04 09:32:33 51°18.506 2°53.545 1.8 0.2 303 10.6
2008-08-04 09:32:37 51°18.506 2°53.545 1.6 0.2 309 10.6
2008-08-04 09:32:42 51°18.506 2°53.544 1.4 0.2 309 10.6
2008-08-04 09:32:47 51°18.506 2°53.544 1.4 0.2 324 10.6
2008-08-04 09:32:52 51°18.507 2°53.544 1.4 0.3 307 10.7
2008-08-04 09:32:57 51°18.507 2°53.543 1.2 0.3 323 10.7
2008-08-04 09:33:02 51°18.507 2°53.543 1.3 0.4 317 10.7
2008-08-04 09:33:08 51°18.508 2°53.542 1.4 0.3 338 10.6
2008-08-04 09:33:13 51°18.508 2°53.542 1.4 0.3 328 10.6
2008-08-04 09:33:17 51°18.508 2°53.541 1.4 0.4 305 10.6
2008-08-04 09:33:22 51°18.509 2°53.541 1.7 0.2 333 10.6
2008-08-04 09:33:28 51°18.509 2°53.541 2.2 0.4 315 10.7
2008-08-04 09:33:33 51°18.509 2°53.54 2.4 0.3 328 10.7
2008-08-04 09:33:37 51°18.51 2°53.54 2.7 0.3 325 10.7
2008-08-04 09:33:42 51°18.51 2°53.54 2.2 0.3 349 10.8
2008-08-04 09:33:48 51°18.51 2°53.539 1.9 0.3 343 10.7
2008-08-04 09:33:53 51°18.511 2°53.539 2.5 0.2 11 10.8
2008-08-04 09:33:57 51°18.511 2°53.539 2.9 0.3 337 10.8
2008-08-04 09:34:02 51°18.511 2°53.539 3.2 0.2 17 10.6
2008-08-04 09:34:07 51°18.511 2°53.538 3.4 0.2 306 10.6
2008-08-04 09:34:13 51°18.512 2°53.538 3.7 0.2 324 10.6
2008-08-04 09:34:17 51°18.512 2°53.538 4 0.2 314 10.7
2008-08-04 09:34:22 51°18.512 2°53.537 3.8 0.1 354 10.7
2008-08-04 09:34:28 51°18.512 2°53.537 3.8 0.2 320 10.8
2008-08-04 09:34:33 51°18.512 2°53.537 3.9 0.2 310 10.7
2008-08-04 09:34:37 51°18.513 2°53.537 4.3 0.2 310 10.7
2008-08-04 09:34:42 51°18.513 2°53.537 4.5 0.1 316 10.5
2008-08-04 09:34:47 51°18.513 2°53.537 5 0.2 290 10.4
2008-08-04 09:34:52 51°18.513 2°53.537 5.4 0.2 281 10.5
2008-08-04 09:34:57 51°18.513 2°53.536 5.8 0.1 323 10.4
2008-08-04 09:35:02 51°18.513 2°53.536 5.7 0.1 305 10.4
2008-08-04 09:35:08 51°18.513 2°53.536 5.9 0.1 311 10.5
2008-08-04 09:35:13 51°18.513 2°53.536 5.7 0.1 308 10.6
2008-08-04 09:35:17 51°18.513 2°53.536 5.3 0.1 331 10.8
2008-08-04 09:35:22 51°18.513 2°53.536 5 0.1 57 10.8
2008-08-04 09:35:28 51°18.513 2°53.536 4.9 0.1 309 10.7
2008-08-04 09:35:33 51°18.513 2°53.535 5.3 0.1 316 10.8
2008-08-04 09:35:37 51°18.513 2°53.535 5 -999 99 10.7
2008-08-04 09:35:42 51°18.513 2°53.535 5.1 0.1 251 10.6
2008-08-04 09:35:48 51°18.513 2°53.535 5.4 0.1 139 10.7
2008-08-04 09:35:53 51°18.513 2°53.535 5.6 0.1 276 10.8
2008-08-04 09:35:57 51°18.513 2°53.535 5.9 -999 96 10.7
2008-08-04 09:36:02 51°18.513 2°53.535 6.5 0.2 277 10.8
2008-08-04 09:36:07 51°18.513 2°53.535 7.1 0.1 279 10.8
2008-08-04 09:36:13 51°18.513 2°53.535 7.4 0.1 155 10.5
2008-08-04 09:36:17 51°18.513 2°53.535 8.2 0.3 184 10.2
2008-08-04 09:36:22 51°18.512 2°53.535 9.3 0.3 173 10.2
2008-08-04 09:36:28 51°18.511 2°53.535 9.8 0.3 166 10.2
2008-08-04 09:36:33 51°18.511 2°53.535 10.1 0.2 182 10.4
2008-08-04 09:36:37 51°18.511 2°53.535 10.1 0.1 186 10.6
2008-08-04 09:36:42 51°18.511 2°53.535 9.8 0.2 228 10.8
2008-08-04 09:36:47 51°18.511 2°53.535 9.7 0.1 209 10.9
2008-08-04 09:36:52 51°18.51 2°53.535 10.1 0.1 181 11
2008-08-04 09:36:57 51°18.51 2°53.535 10 0.1 204 11
2008-08-04 09:37:02 51°18.51 2°53.534 9.8 0.2 224 10.8
2008-08-04 09:37:08 51°18.51 2°53.535 9.9 0.1 171 10.9
2008-08-04 09:37:13 51°18.51 2°53.535 9.9 0.1 344 10.9
2008-08-04 09:37:17 51°18.511 2°53.535 10.2 0.1 34 10.8
2008-08-04 09:37:22 51°18.511 2°53.535 10.6 0.1 338 10.7
2008-08-04 09:37:28 51°18.511 2°53.535 10.9 0.1 4 10.7
2008-08-04 09:37:33 51°18.511 2°53.535 10.8 0.1 342 10.8
2008-08-04 09:37:37 51°18.511 2°53.535 10.6 0.2 338 10.8
2008-08-04 09:37:42 51°18.511 2°53.535 10.5 0.2 333 10.7
2008-08-04 09:37:48 51°18.512 2°53.534 10.5 0.1 357 10.8
2008-08-04 09:37:53 51°18.512 2°53.534 10.1 0.2 318 10.7
2008-08-04 09:37:57 51°18.512 2°53.534 9.7 0.2 309 10.7
2008-08-04 09:38:02 51°18.512 2°53.534 9.7 0.2 291 10.6
2008-08-04 09:38:08 51°18.512 2°53.534 9.8 0.1 284 10.5
2008-08-04 09:38:13 51°18.512 2°53.533 10.1 0.2 282 10.5
2008-08-04 09:38:17 51°18.512 2°53.533 10.3 -999 318 10.4
2008-08-04 09:38:22 51°18.512 2°53.533 10.4 -999 265 10.5
2008-08-04 09:38:28 51°18.512 2°53.533 10.2 -999 223 10.5
2008-08-04 09:38:33 51°18.512 2°53.533 10.5 0.1 97 10.7
2008-08-04 09:38:37 51°18.512 2°53.533 10.7 0.1 311 10.7
2008-08-04 09:38:42 51°18.512 2°53.533 11.1 0.1 339 10.7
2008-08-04 09:38:47 51°18.512 2°53.533 11.5 0.1 58 10.7
2008-08-04 09:38:53 51°18.512 2°53.533 11.4 0.1 41 10.8
2008-08-04 09:38:57 51°18.513 2°53.533 11.6 -999 20 10.7
2008-08-04 09:39:02 51°18.513 2°53.533 12.1 -999 265 10.7
2008-08-04 09:39:08 51°18.513 2°53.533 12.2 0.1 356 10.7
2008-08-04 09:39:13 51°18.513 2°53.533 12.2 0.1 322 10.8
2008-08-04 09:39:17 51°18.513 2°53.533 12 0.1 323 10.8
2008-08-04 09:39:22 51°18.513 2°53.533 11.5 0.1 38 10.8
2008-08-04 09:39:28 51°18.513 2°53.533 11 0.1 10 10.7
2008-08-04 09:39:32 51°18.513 2°53.533 10.8 0.2 112 10.6
2008-08-04 09:39:37 51°18.513 2°53.533 10.9 0.1 192 10.5
2008-08-04 09:39:42 51°18.513 2°53.533 11 0.1 233 10.6
2008-08-04 09:39:48 51°18.513 2°53.533 10.9 0.1 260 10.6
2008-08-04 09:39:53 51°18.513 2°53.533 10.7 0.1 19 10.8
2008-08-04 09:39:57 51°18.513 2°53.533 10.5 0.1 7 10.8
2008-08-04 09:40:02 51°18.513 2°53.533 10.6 -999 11 10.8
2008-08-04 09:40:08 51°18.513 2°53.533 10.5 0.1 105 10.6
2008-08-04 09:40:13 51°18.513 2°53.533 10.1 -999 56 10.6
2008-08-04 09:40:17 51°18.513 2°53.533 9.8 0.2 82 10.8
2008-08-04 09:40:22 51°18.513 2°53.533 9.3 0.1 334 10.8
2008-08-04 09:40:28 51°18.513 2°53.533 9 0.1 70 10.9
2008-08-04 09:40:33 51°18.513 2°53.533 8.7 0.2 19 11
2008-08-04 09:40:37 51°18.513 2°53.533 8.2 0.3 64 11
2008-08-04 09:40:42 51°18.513 2°53.533 8.6 0.2 79 10.7
2008-08-04 09:40:47 51°18.512 2°53.533 8.9 0.1 114 10.6
2008-08-04 09:40:53 51°18.513 2°53.533 9 0.1 26 10.4
2008-08-04 09:40:57 51°18.512 2°53.532 9.1 0.1 264 10.6
2008-08-04 09:41:02 51°18.512 2°53.532 9 0.1 142 10.7
2008-08-04 09:41:07 51°18.512 2°53.532 8.7 0.1 187 10.8
2008-08-04 09:41:13 51°18.512 2°53.532 8.6 0.2 85 10.8
2008-08-04 09:41:17 51°18.512 2°53.532 8.9 0.2 247 10.9
2008-08-04 09:41:22 51°18.512 2°53.532 9.2 0.2 257 10.8
2008-08-04 09:41:28 51°18.513 2°53.532 9.3 0.1 279 10.9
2008-08-04 09:41:32 51°18.512 2°53.532 9.3 0.1 295 10.9
2008-08-04 09:41:37 51°18.513 2°53.532 9.1 0.1 1 11
2008-08-04 09:41:42 51°18.513 2°53.532 9.1 0.2 59 11.1
2008-08-04 09:41:47 51°18.513 2°53.532 9.4 0.1 15 10.9
2008-08-04 09:41:53 51°18.513 2°53.532 9.6 0.1 62 10.9
2008-08-04 09:41:57 51°18.513 2°53.531 10 0.1 352 10.9
2008-08-04 09:42:02 51°18.513 2°53.531 10 0.1 36 10.8
2008-08-04 09:42:08 51°18.513 2°53.531 10.3 0.2 307 10.9
2008-08-04 09:42:13 51°18.513 2°53.531 10.2 -999 302 10.8
2008-08-04 09:42:17 51°18.513 2°53.532 10.5 0.1 249 10.7
2008-08-04 09:42:22 51°18.513 2°53.532 10.7 0.1 165 10.7
2008-08-04 09:42:28 51°18.513 2°53.532 11 0.1 151 10.8
2008-08-04 09:42:33 51°18.513 2°53.532 11.1 -999 87 10.8
2008-08-04 09:42:37 51°18.513 2°53.531 10.9 -999 181 10.9
2008-08-04 09:42:42 51°18.513 2°53.532 10.8 -999 107 10.9
2008-08-04 09:42:48 51°18.513 2°53.531 10.8 -999 216 10.7
2008-08-04 09:42:53 51°18.513 2°53.532 11 0.1 146 10.7
2008-08-04 09:42:57 51°18.513 2°53.531 10.6 0.1 207 10.6
2008-08-04 09:43:02 51°18.513 2°53.531 9.9 0.1 195 10.6
2008-08-04 09:43:07 51°18.513 2°53.531 9.7 0.1 292 10.6
2008-08-04 09:43:13 51°18.513 2°53.531 9.3 0.3 284 10.7
2008-08-04 09:43:17 51°18.513 2°53.531 8.8 -999 277 10.6
2008-08-04 09:43:22 51°18.513 2°53.532 8.6 -999 240 10.5
2008-08-04 09:43:27 51°18.513 2°53.531 9 0.1 249 10.5
2008-08-04 09:43:32 51°18.513 2°53.532 9.4 0.1 252 10.7
2008-08-04 09:43:37 51°18.513 2°53.531 9.3 0.1 247 10.7
2008-08-04 09:43:42 51°18.513 2°53.532 9.6 0.2 240 10.7
2008-08-04 09:43:47 51°18.513 2°53.532 9.8 0.1 272 10.8
2008-08-04 09:43:52 51°18.513 2°53.532 10.1 -999 132 10.7
2008-08-04 09:43:58 51°18.513 2°53.531 10.2 0.1 282 10.8
2008-08-04 09:44:02 51°18.513 2°53.532 9.7 -999 128 10.8
2008-08-04 09:44:08 51°18.513 2°53.531 8.9 0.1 258 10.9
2008-08-04 09:44:13 51°18.513 2°53.531 8.9 -999 222 10.9
2008-08-04 09:44:17 51°18.513 2°53.531 8.4 0.1 314 10.9
2008-08-04 09:44:22 51°18.513 2°53.531 8.7 0.1 27 10.9
2008-08-04 09:44:28 51°18.513 2°53.531 9.2 0.2 322 10.9
2008-08-04 09:44:32 51°18.513 2°53.531 9.3 0.2 20 10.7
2008-08-04 09:44:37 51°18.513 2°53.531 9.3 0.2 341 10.6
2008-08-04 09:44:42 51°18.514 2°53.531 10.6 0.2 354 10.5
2008-08-04 09:44:48 51°18.514 2°53.531 10.6 0.2 320 10.5
2008-08-04 09:44:53 51°18.514 2°53.531 10.1 0.1 355 10.4
2008-08-04 09:44:57 51°18.514 2°53.531 10.8 0.2 356 10.5
2008-08-04 09:45:02 51°18.514 2°53.531 11.3 -999 190 10.4
2008-08-04 09:45:08 51°18.514 2°53.531 12 0.2 252 10.5
2008-08-04 09:45:13 51°18.514 2°53.531 12.1 0.1 159 10.7
2008-08-04 09:45:17 51°18.514 2°53.531 12.2 0.2 153 10.9
2008-08-04 09:45:22 51°18.513 2°53.531 12.5 0.3 126 11.1
2008-08-04 09:45:27 51°18.513 2°53.531 12.6 0.1 199 11
2008-08-04 09:45:33 51°18.513 2°53.531 12.9 0.1 190 10.9
2008-08-04 09:45:37 51°18.513 2°53.53 12.6 0.2 222 10.9